Time,TemperatureF,DewpointF,PressureIn,WindDirection,WindDirectionDegrees,WindSpeedMPH,WindSpeedGustMPH,Humidity,HourlyPrecipIn,Conditions,Clouds,dailyrainin,SoftwareType,DateUTC
2013-05-20 00:04:00,67.2,61.2,29.69,ENE,59,1.0,2.0,81,0.00,,,0.00,VWS V12.07,2013-05-20 05:04:00,
2013-05-20 00:09:00,67.2,61.2,29.69,NE,44,0.0,4.0,81,0.00,,,0.00,VWS V12.07,2013-05-20 05:09:00,
2013-05-20 00:14:00,67.3,61.3,29.68,NNE,28,0.0,4.0,81,0.00,,,0.00,VWS V12.07,2013-05-20 05:14:00,
2013-05-20 00:19:00,67.3,60.9,29.68,WNW,296,0.0,4.0,80,0.00,,,0.00,VWS V12.07,2013-05-20 05:19:00,
2013-05-20 00:29:00,67.4,61.0,29.68,NNE,15,3.0,5.0,80,0.00,,,0.00,VWS V12.07,2013-05-20 05:29:00,
2013-05-20 00:34:00,67.4,61.0,29.68,WSW,247,0.0,3.0,80,0.00,,,0.00,VWS V12.07,2013-05-20 05:34:00,
2013-05-20 00:39:00,67.5,61.1,29.67,East,90,0.0,4.0,80,0.00,,,0.00,VWS V12.07,2013-05-20 05:39:00,
2013-05-20 00:49:00,67.6,61.2,29.67,NNE,25,2.0,6.0,80,0.00,,,0.00,VWS V12.07,2013-05-20 05:49:00,
2013-05-20 00:54:00,67.6,61.2,29.68,ENE,66,2.0,6.0,80,0.00,,,0.00,VWS V12.07,2013-05-20 05:54:00,
2013-05-20 00:59:00,67.6,61.2,29.67,North,355,1.0,6.0,80,0.00,,,0.00,VWS V12.07,2013-05-20 05:59:00,
2013-05-20 01:04:00,67.4,61.0,29.67,NNW,331,0.0,3.0,80,0.00,,,0.00,VWS V12.07,2013-05-20 06:04:00,
2013-05-20 01:09:00,67.3,60.9,29.66,East,83,2.0,5.0,80,0.00,,,0.00,VWS V12.07,2013-05-20 06:09:00,
2013-05-20 01:14:00,67.2,61.5,29.65,NE,48,3.0,6.0,82,0.00,,,0.00,VWS V12.07,2013-05-20 06:14:00,
2013-05-20 01:19:00,66.9,61.2,29.65,NNE,17,2.0,6.0,82,0.00,,,0.00,VWS V12.07,2013-05-20 06:19:00,
2013-05-20 01:24:00,66.8,61.1,29.64,NE,42,0.0,6.0,82,0.00,,,0.00,VWS V12.07,2013-05-20 06:24:00,
2013-05-20 01:29:00,66.6,60.9,29.65,NE,53,1.0,6.0,82,0.00,,,0.00,VWS V12.07,2013-05-20 06:29:00,
2013-05-20 01:34:00,66.4,60.7,29.66,NE,46,1.0,3.0,82,0.00,,,0.00,VWS V12.07,2013-05-20 06:34:00,
2013-05-20 01:39:00,66.4,60.7,29.67,NNE,25,0.0,5.0,82,0.00,,,0.00,VWS V12.07,2013-05-20 06:39:00,
2013-05-20 01:44:00,66.3,60.7,29.68,WNW,288,0.0,5.0,82,0.00,,,0.00,VWS V12.07,2013-05-20 06:44:00,
2013-05-20 01:49:00,66.1,60.8,29.69,West,266,1.0,5.0,83,0.00,,,0.00,VWS V12.07,2013-05-20 06:49:00,
2013-05-20 01:54:00,65.8,60.5,29.70,West,277,0.0,5.0,83,0.00,,,0.00,VWS V12.07,2013-05-20 06:54:00,
2013-05-20 01:59:00,65.6,60.6,29.68,North,360,0.0,5.0,84,0.00,,,0.00,VWS V12.07,2013-05-20 06:59:00,
2013-05-20 02:04:00,65.6,60.3,29.68,North,360,0.0,3.0,83,0.00,,,0.00,VWS V12.07,2013-05-20 07:04:00,
2013-05-20 02:14:00,65.5,60.2,29.69,North,11,0.0,3.0,83,0.00,,,0.00,VWS V12.07,2013-05-20 07:14:00,
2013-05-20 02:19:00,65.4,60.5,29.68,North,360,1.0,3.0,84,0.00,,,0.00,VWS V12.07,2013-05-20 07:19:00,
2013-05-20 02:24:00,65.4,60.1,29.69,North,360,1.0,3.0,83,0.00,,,0.00,VWS V12.07,2013-05-20 07:24:00,
2013-05-20 02:29:00,65.3,60.0,29.69,NNE,18,0.0,3.0,83,0.00,,,0.00,VWS V12.07,2013-05-20 07:29:00,
2013-05-20 02:34:00,65.2,60.2,29.70,SE,137,2.0,4.0,84,0.00,,,0.00,VWS V12.07,2013-05-20 07:34:00,
2013-05-20 02:44:00,65.0,60.0,29.70,North,5,0.0,4.0,84,0.00,,,0.00,VWS V12.07,2013-05-20 07:44:00,
2013-05-20 02:49:00,64.9,59.6,29.70,ENE,65,0.0,6.0,83,0.00,,,0.00,VWS V12.07,2013-05-20 07:49:00,
2013-05-20 02:59:00,64.5,59.2,29.68,NE,53,0.0,6.0,83,0.00,,,0.00,VWS V12.07,2013-05-20 07:59:00,
2013-05-20 03:04:00,64.3,59.0,29.69,NNW,346,0.0,2.0,83,0.00,,,0.00,VWS V12.07,2013-05-20 08:04:00,
2013-05-20 03:09:00,64.1,58.8,29.68,NNW,327,1.0,3.0,83,0.00,,,0.00,VWS V12.07,2013-05-20 08:09:00,
2013-05-20 03:14:00,63.9,58.6,29.69,NW,321,0.0,3.0,83,0.00,,,0.00,VWS V12.07,2013-05-20 08:14:00,
2013-05-20 03:19:00,63.8,58.9,29.72,East,96,2.0,4.0,84,0.00,,,0.00,VWS V12.07,2013-05-20 08:19:00,
2013-05-20 03:24:00,63.7,58.8,29.72,SSE,162,0.0,4.0,84,0.00,,,0.00,VWS V12.07,2013-05-20 08:24:00,
2013-05-20 03:34:00,63.5,59.2,29.72,East,93,0.0,8.0,86,0.00,,,0.00,VWS V12.07,2013-05-20 08:34:00,
2013-05-20 03:39:00,63.3,59.4,29.72,ENE,64,0.0,8.0,87,0.00,,,0.00,VWS V12.07,2013-05-20 08:39:00,
2013-05-20 03:44:00,63.2,59.6,29.71,North,5,0.0,8.0,88,0.01,,,0.01,VWS V12.07,2013-05-20 08:44:00,
2013-05-20 03:49:00,63.0,59.4,29.70,North,360,0.0,8.0,88,0.02,,,0.02,VWS V12.07,2013-05-20 08:49:00,
2013-05-20 03:54:00,62.7,59.4,29.69,SE,126,0.0,8.0,89,0.02,,,0.03,VWS V12.07,2013-05-20 08:54:00,
2013-05-20 03:59:00,62.4,59.4,29.68,North,355,1.0,8.0,90,0.03,,,0.03,VWS V12.07,2013-05-20 08:59:00,
2013-05-20 04:04:00,62.1,59.1,29.66,NNE,28,2.0,3.0,90,0.04,,,0.04,VWS V12.07,2013-05-20 09:04:00,
2013-05-20 04:09:00,61.9,59.2,29.61,NE,37,2.0,4.0,91,0.05,,,0.05,VWS V12.07,2013-05-20 09:09:00,
2013-05-20 04:14:00,61.6,59.0,29.58,NNE,28,5.0,5.0,91,0.05,,,0.05,VWS V12.07,2013-05-20 09:14:00,
2013-05-20 04:19:00,61.3,58.7,29.56,NE,53,4.0,8.0,91,0.05,,,0.05,VWS V12.07,2013-05-20 09:19:00,
2013-05-20 04:24:00,61.1,58.8,29.56,NE,37,2.0,8.0,92,0.05,,,0.05,VWS V12.07,2013-05-20 09:24:00,
2013-05-20 04:34:00,60.8,58.5,29.58,NNE,20,0.0,1.0,92,0.05,,,0.05,VWS V12.07,2013-05-20 09:34:00,
2013-05-20 04:39:00,60.7,58.4,29.58,NNE,32,2.0,2.0,92,0.05,,,0.05,VWS V12.07,2013-05-20 09:39:00,
2013-05-20 04:44:00,60.5,58.2,29.58,ENE,62,1.0,3.0,92,0.05,,,0.05,VWS V12.07,2013-05-20 09:44:00,
2013-05-20 04:49:00,60.4,58.1,29.57,NNE,29,0.0,3.0,92,0.05,,,0.05,VWS V12.07,2013-05-20 09:49:00,
2013-05-20 04:54:00,60.3,58.0,29.56,North,355,1.0,3.0,92,0.05,,,0.05,VWS V12.07,2013-05-20 09:54:00,
2013-05-20 04:59:00,60.2,57.9,29.55,North,360,1.0,3.0,92,0.05,,,0.05,VWS V12.07,2013-05-20 09:59:00,
2013-05-20 05:09:00,59.9,57.6,29.56,ENE,61,0.0,3.0,92,0.01,,,0.05,VWS V12.07,2013-05-20 10:09:00,
2013-05-20 05:14:00,59.7,57.4,29.56,ENE,62,1.0,3.0,92,0.01,,,0.05,VWS V12.07,2013-05-20 10:14:00,
2013-05-20 05:19:00,59.5,57.2,29.56,NNW,334,0.0,3.0,92,0.01,,,0.05,VWS V12.07,2013-05-20 10:19:00,
2013-05-20 05:24:00,59.1,56.8,29.57,NNW,336,1.0,3.0,92,0.01,,,0.05,VWS V12.07,2013-05-20 10:24:00,
2013-05-20 05:29:00,59.0,56.7,29.57,NNW,336,0.0,3.0,92,0.01,,,0.05,VWS V12.07,2013-05-20 10:29:00,
2013-05-20 05:39:00,58.6,56.3,29.57,SSW,211,0.0,1.0,92,0.00,,,0.05,VWS V12.07,2013-05-20 10:39:00,
2013-05-20 05:44:00,58.4,56.4,29.58,SW,225,1.0,1.0,93,0.00,,,0.05,VWS V12.07,2013-05-20 10:44:00,
2013-05-20 05:49:00,58.3,56.3,29.58,SW,225,0.0,2.0,93,0.00,,,0.05,VWS V12.07,2013-05-20 10:49:00,
2013-05-20 05:59:00,58.3,56.3,29.58,NNW,344,0.0,2.0,93,0.00,,,0.05,VWS V12.07,2013-05-20 10:59:00,
2013-05-20 06:04:00,58.4,56.4,29.58,NNW,344,0.0,0.0,93,0.00,,,0.05,VWS V12.07,2013-05-20 11:04:00,
2013-05-20 06:09:00,58.4,56.4,29.59,NNW,344,0.0,1.0,93,0.00,,,0.05,VWS V12.07,2013-05-20 11:09:00,
2013-05-20 06:14:00,58.4,56.4,29.59,NNE,26,1.0,2.0,93,0.00,,,0.05,VWS V12.07,2013-05-20 11:14:00,
2013-05-20 06:19:00,58.5,56.8,29.59,NNE,15,0.0,2.0,94,0.00,,,0.05,VWS V12.07,2013-05-20 11:19:00,
2013-05-20 06:29:00,58.5,56.5,29.61,WSW,241,5.0,5.0,93,0.00,,,0.05,VWS V12.07,2013-05-20 11:29:00,
2013-05-20 06:34:00,58.6,56.9,29.61,NE,51,0.0,2.0,94,0.00,,,0.05,VWS V12.07,2013-05-20 11:34:00,
2013-05-20 06:39:00,58.6,56.9,29.61,West,277,0.0,2.0,94,0.00,,,0.05,VWS V12.07,2013-05-20 11:39:00,
2013-05-20 06:44:00,59.0,57.3,29.62,North,9,1.0,2.0,94,0.00,,,0.05,VWS V12.07,2013-05-20 11:44:00,
2013-05-20 06:49:00,59.3,57.6,29.62,WSW,250,0.0,2.0,94,0.00,,,0.05,VWS V12.07,2013-05-20 11:49:00,
2013-05-20 06:59:00,60.9,58.9,29.63,South,179,0.0,5.0,93,0.00,,,0.05,VWS V12.07,2013-05-20 11:59:00,
2013-05-20 07:04:00,61.5,59.2,29.63,WNW,282,2.0,3.0,92,0.00,,,0.05,VWS V12.07,2013-05-20 12:04:00,
2013-05-20 07:09:00,62.0,59.0,29.63,NE,43,1.0,8.0,90,0.00,,,0.05,VWS V12.07,2013-05-20 12:09:00,
2013-05-20 07:14:00,62.6,59.3,29.64,NE,49,2.0,10.0,89,0.00,,,0.05,VWS V12.07,2013-05-20 12:14:00,
2013-05-20 07:19:00,63.0,59.4,29.64,NW,315,0.0,10.0,88,0.00,,,0.05,VWS V12.07,2013-05-20 12:19:00,
2013-05-20 07:29:00,63.8,59.5,29.65,NE,53,1.0,10.0,86,0.00,,,0.05,VWS V12.07,2013-05-20 12:29:00,
2013-05-20 07:39:00,64.3,59.7,29.65,NE,53,2.0,7.0,85,0.00,,,0.05,VWS V12.07,2013-05-20 12:39:00,
2013-05-20 07:44:00,64.4,59.5,29.65,SE,137,1.0,7.0,84,0.00,,,0.05,VWS V12.07,2013-05-20 12:44:00,
2013-05-20 07:49:00,64.4,59.5,29.65,WNW,287,5.0,7.0,84,0.00,,,0.05,VWS V12.07,2013-05-20 12:49:00,
2013-05-20 07:54:00,64.4,59.5,29.66,SSW,195,2.0,7.0,84,0.00,,,0.05,VWS V12.07,2013-05-20 12:54:00,
2013-05-20 07:59:00,64.4,59.5,29.66,SE,135,0.0,7.0,84,0.00,,,0.05,VWS V12.07,2013-05-20 12:59:00,
2013-05-20 08:09:00,64.7,59.8,29.67,North,351,0.0,4.0,84,0.00,,,0.05,VWS V12.07,2013-05-20 13:09:00,
2013-05-20 08:14:00,65.4,60.5,29.67,SE,129,1.0,6.0,84,0.00,,,0.05,VWS V12.07,2013-05-20 13:14:00,
2013-05-20 08:24:00,66.1,60.1,29.67,NW,326,0.0,6.0,81,0.00,,,0.05,VWS V12.07,2013-05-20 13:24:00,
2013-05-20 08:29:00,66.2,60.5,29.68,North,360,0.0,6.0,82,0.00,,,0.05,VWS V12.07,2013-05-20 13:29:00,
2013-05-20 08:34:00,66.2,60.5,29.68,North,360,1.0,5.0,82,0.00,,,0.05,VWS V12.07,2013-05-20 13:34:00,
2013-05-20 08:39:00,66.1,60.1,29.68,WSW,241,11.0,11.0,81,0.00,,,0.05,VWS V12.07,2013-05-20 13:39:00,
2013-05-20 08:49:00,66.2,60.2,29.67,North,350,0.0,11.0,81,0.00,,,0.05,VWS V12.07,2013-05-20 13:49:00,
2013-05-20 08:54:00,66.2,60.2,29.68,West,266,5.0,11.0,81,0.00,,,0.05,VWS V12.07,2013-05-20 13:54:00,
2013-05-20 08:59:00,66.2,60.2,29.67,NNE,29,1.0,11.0,81,0.00,,,0.05,VWS V12.07,2013-05-20 13:59:00,
2013-05-20 09:04:00,66.1,60.1,29.67,ENE,74,0.0,7.0,81,0.00,,,0.05,VWS V12.07,2013-05-20 14:04:00,
2013-05-20 09:09:00,66.1,60.1,29.67,NE,45,0.0,7.0,81,0.00,,,0.05,VWS V12.07,2013-05-20 14:09:00,
2013-05-20 09:14:00,66.1,60.1,29.67,NNE,17,0.0,7.0,81,0.00,,,0.05,VWS V12.07,2013-05-20 14:14:00,
2013-05-20 09:19:00,66.0,60.0,29.67,NW,315,0.0,7.0,81,0.00,,,0.05,VWS V12.07,2013-05-20 14:19:00,
2013-05-20 09:29:00,65.6,60.0,29.66,North,360,0.0,7.0,82,0.00,,,0.05,VWS V12.07,2013-05-20 14:29:00,
2013-05-20 09:34:00,65.5,60.2,29.66,SSW,209,1.0,5.0,83,0.00,,,0.05,VWS V12.07,2013-05-20 14:34:00,
2013-05-20 09:39:00,65.5,60.2,29.66,ENE,57,0.0,5.0,83,0.00,,,0.05,VWS V12.07,2013-05-20 14:39:00,
2013-05-20 09:49:00,65.5,60.2,29.66,NE,56,0.0,5.0,83,0.00,,,0.05,VWS V12.07,2013-05-20 14:49:00,
2013-05-20 09:54:00,65.7,60.4,29.66,East,92,0.0,5.0,83,0.00,,,0.05,VWS V12.07,2013-05-20 14:54:00,
2013-05-20 09:59:00,66.0,61.0,29.66,South,178,1.0,5.0,84,0.01,,,0.06,VWS V12.07,2013-05-20 14:59:00,
2013-05-20 10:04:00,66.1,61.1,29.66,North,360,0.0,4.0,84,0.01,,,0.06,VWS V12.07,2013-05-20 15:04:00,
2013-05-20 10:09:00,66.1,60.8,29.66,ESE,113,2.0,4.0,83,0.01,,,0.06,VWS V12.07,2013-05-20 15:09:00,
2013-05-20 10:14:00,66.1,60.8,29.66,NE,41,0.0,6.0,83,0.01,,,0.06,VWS V12.07,2013-05-20 15:14:00,
2013-05-20 10:19:00,66.1,60.8,29.66,West,280,0.0,6.0,83,0.01,,,0.06,VWS V12.07,2013-05-20 15:19:00,
2013-05-20 10:24:00,66.1,60.5,29.66,NE,36,3.0,6.0,82,0.01,,,0.06,VWS V12.07,2013-05-20 15:24:00,
2013-05-20 10:29:00,66.4,60.7,29.65,ENE,71,2.0,8.0,82,0.01,,,0.06,VWS V12.07,2013-05-20 15:29:00,
2013-05-20 10:34:00,66.7,60.7,29.66,ENE,65,0.0,4.0,81,0.01,,,0.06,VWS V12.07,2013-05-20 15:34:00,
2013-05-20 10:39:00,67.2,61.2,29.66,WNW,292,1.0,4.0,81,0.01,,,0.06,VWS V12.07,2013-05-20 15:39:00,
2013-05-20 10:44:00,67.9,60.8,29.65,ENE,64,1.0,4.0,78,0.01,,,0.06,VWS V12.07,2013-05-20 15:44:00,
2013-05-20 10:49:00,68.7,60.8,29.65,ENE,71,1.0,4.0,76,0.01,,,0.06,VWS V12.07,2013-05-20 15:49:00,
2013-05-20 10:59:00,70.3,60.9,29.65,South,169,3.0,7.0,72,0.01,,,0.06,VWS V12.07,2013-05-20 15:59:00,
2013-05-20 11:04:00,70.9,61.0,29.65,NE,35,0.0,4.0,71,0.00,,,0.06,VWS V12.07,2013-05-20 16:04:00,
2013-05-20 11:14:00,71.1,60.4,29.65,NE,44,2.0,6.0,69,0.00,,,0.06,VWS V12.07,2013-05-20 16:14:00,
2013-05-20 11:19:00,71.7,61.0,29.65,SSE,161,2.0,6.0,69,0.00,,,0.06,VWS V12.07,2013-05-20 16:19:00,
2013-05-20 11:24:00,72.3,61.2,29.65,SE,138,2.0,11.0,68,0.00,,,0.06,VWS V12.07,2013-05-20 16:24:00,
2013-05-20 11:29:00,72.6,61.9,29.65,WSW,238,5.0,11.0,69,0.00,,,0.06,VWS V12.07,2013-05-20 16:29:00,
2013-05-20 11:34:00,72.6,60.2,29.65,North,360,2.0,3.0,65,0.00,,,0.06,VWS V12.07,2013-05-20 16:34:00,
2013-05-20 11:39:00,72.2,61.1,29.65,WNW,282,2.0,5.0,68,0.00,,,0.06,VWS V12.07,2013-05-20 16:39:00,
2013-05-20 11:44:00,72.2,60.7,29.66,NW,316,9.0,9.0,67,0.00,,,0.06,VWS V12.07,2013-05-20 16:44:00,
2013-05-20 11:49:00,72.4,60.4,29.65,WNW,290,0.0,9.0,66,0.00,,,0.06,VWS V12.07,2013-05-20 16:49:00,
2013-05-20 11:54:00,72.5,60.5,29.65,West,260,0.0,9.0,66,0.00,,,0.06,VWS V12.07,2013-05-20 16:54:00,
2013-05-20 11:59:00,72.8,60.4,29.65,NE,37,0.0,9.0,65,0.00,,,0.06,VWS V12.07,2013-05-20 16:59:00,
2013-05-20 12:04:00,73.5,60.6,29.65,WSW,250,1.0,6.0,64,0.00,,,0.06,VWS V12.07,2013-05-20 17:04:00,
2013-05-20 12:09:00,73.8,60.0,29.65,SSE,165,3.0,6.0,62,0.00,,,0.06,VWS V12.07,2013-05-20 17:09:00,
2013-05-20 12:14:00,73.6,60.2,29.65,North,360,3.0,6.0,63,0.00,,,0.06,VWS V12.07,2013-05-20 17:14:00,
2013-05-20 12:19:00,73.5,59.7,29.64,NW,318,1.0,6.0,62,0.00,,,0.06,VWS V12.07,2013-05-20 17:19:00,
2013-05-20 12:24:00,73.6,60.2,29.64,North,11,4.0,6.0,63,0.00,,,0.06,VWS V12.07,2013-05-20 17:24:00,
2013-05-20 12:29:00,74.3,60.9,29.64,WSW,247,4.0,6.0,63,0.00,,,0.06,VWS V12.07,2013-05-20 17:29:00,
2013-05-20 12:34:00,74.9,60.1,29.64,WSW,237,0.0,3.0,60,0.00,,,0.06,VWS V12.07,2013-05-20 17:34:00,
2013-05-20 12:39:00,75.3,60.9,29.64,NNE,18,1.0,4.0,61,0.00,,,0.06,VWS V12.07,2013-05-20 17:39:00,
2013-05-20 12:44:00,75.2,60.4,29.64,SE,135,0.0,5.0,60,0.00,,,0.06,VWS V12.07,2013-05-20 17:44:00,
2013-05-20 12:49:00,75.2,60.4,29.64,SSE,163,0.0,7.0,60,0.00,,,0.06,VWS V12.07,2013-05-20 17:49:00,
2013-05-20 12:54:00,75.2,59.9,29.64,WNW,298,1.0,7.0,59,0.00,,,0.06,VWS V12.07,2013-05-20 17:54:00,
2013-05-20 12:59:00,75.4,60.1,29.63,NNW,343,1.0,7.0,59,0.00,,,0.06,VWS V12.07,2013-05-20 17:59:00,
2013-05-20 13:04:00,75.6,60.3,29.63,ESE,112,1.0,4.0,59,0.00,,,0.06,VWS V12.07,2013-05-20 18:04:00,
2013-05-20 13:09:00,75.3,60.5,29.63,SE,126,2.0,4.0,60,0.00,,,0.06,VWS V12.07,2013-05-20 18:09:00,
2013-05-20 13:14:00,75.2,59.9,29.62,South,190,4.0,10.0,59,0.00,,,0.06,VWS V12.07,2013-05-20 18:14:00,
2013-05-20 13:19:00,75.7,59.9,29.62,WSW,252,4.0,10.0,58,0.00,,,0.06,VWS V12.07,2013-05-20 18:19:00,
2013-05-20 13:24:00,76.1,58.8,29.62,ESE,113,0.0,10.0,55,0.00,,,0.06,VWS V12.07,2013-05-20 18:24:00,
2013-05-20 13:29:00,76.2,59.4,29.62,SSW,192,2.0,10.0,56,0.00,,,0.06,VWS V12.07,2013-05-20 18:29:00,
2013-05-20 13:34:00,76.8,60.4,29.62,West,272,1.0,5.0,57,0.00,,,0.06,VWS V12.07,2013-05-20 18:34:00,
2013-05-20 13:44:00,77.5,59.6,29.62,WSW,251,2.0,9.0,54,0.00,,,0.06,VWS V12.07,2013-05-20 18:44:00,
2013-05-20 13:49:00,77.5,61.1,29.62,NE,44,2.0,9.0,57,0.00,,,0.06,VWS V12.07,2013-05-20 18:49:00,
2013-05-20 13:54:00,77.4,59.5,29.63,SSW,203,0.0,9.0,54,0.00,,,0.06,VWS V12.07,2013-05-20 18:54:00,
2013-05-20 13:59:00,77.3,58.3,29.62,WSW,248,2.0,9.0,52,0.00,,,0.06,VWS V12.07,2013-05-20 18:59:00,
2013-05-20 14:09:00,78.4,59.3,29.62,ESE,119,1.0,5.0,52,0.00,,,0.06,VWS V12.07,2013-05-20 19:09:00,
2013-05-20 14:14:00,78.7,59.6,29.62,WSW,243,4.0,6.0,52,0.00,,,0.06,VWS V12.07,2013-05-20 19:14:00,
2013-05-20 14:19:00,78.7,59.1,29.62,SSE,160,3.0,9.0,51,0.00,,,0.06,VWS V12.07,2013-05-20 19:19:00,
2013-05-20 14:24:00,78.4,59.3,29.62,WSW,242,6.0,12.0,52,0.00,,,0.06,VWS V12.07,2013-05-20 19:24:00,
2013-05-20 14:29:00,78.5,58.9,29.62,West,275,0.0,13.0,51,0.00,,,0.06,VWS V12.07,2013-05-20 19:29:00,
2013-05-20 14:39:00,78.4,59.9,29.62,West,262,5.0,8.0,53,0.00,,,0.06,VWS V12.07,2013-05-20 19:39:00,
2013-05-20 14:44:00,78.7,58.0,29.62,ENE,68,2.0,9.0,49,0.00,,,0.06,VWS V12.07,2013-05-20 19:44:00,
2013-05-20 14:54:00,78.2,59.2,29.62,South,173,3.0,9.0,52,0.00,,,0.06,VWS V12.07,2013-05-20 19:54:00,
2013-05-20 14:59:00,77.7,58.7,29.62,North,355,0.0,9.0,52,0.00,,,0.06,VWS V12.07,2013-05-20 19:59:00,
2013-05-20 15:04:00,77.8,58.8,29.62,West,260,7.0,10.0,52,0.00,,,0.06,VWS V12.07,2013-05-20 20:04:00,
2013-05-20 15:09:00,78.5,57.8,29.62,ESE,116,0.0,10.0,49,0.00,,,0.06,VWS V12.07,2013-05-20 20:09:00,
2013-05-20 15:19:00,78.7,58.5,29.62,WNW,302,2.0,10.0,50,0.00,,,0.06,VWS V12.07,2013-05-20 20:19:00,
2013-05-20 15:24:00,78.2,59.2,29.62,NW,309,3.0,10.0,52,0.00,,,0.06,VWS V12.07,2013-05-20 20:24:00,
2013-05-20 15:29:00,77.6,57.5,29.62,ESE,121,0.0,10.0,50,0.00,,,0.06,VWS V12.07,2013-05-20 20:29:00,
2013-05-20 15:39:00,78.2,57.5,29.62,West,264,1.0,5.0,49,0.00,,,0.06,VWS V12.07,2013-05-20 20:39:00,
2013-05-20 15:44:00,78.0,57.9,29.62,NNW,343,1.0,6.0,50,0.00,,,0.06,VWS V12.07,2013-05-20 20:44:00,
2013-05-20 15:49:00,77.7,57.6,29.62,South,190,2.0,6.0,50,0.00,,,0.06,VWS V12.07,2013-05-20 20:49:00,
2013-05-20 15:54:00,77.4,57.3,29.62,West,264,0.0,8.0,50,0.00,,,0.06,VWS V12.07,2013-05-20 20:54:00,
2013-05-20 15:59:00,77.6,58.1,29.61,SW,218,0.0,11.0,51,0.00,,,0.06,VWS V12.07,2013-05-20 20:59:00,
2013-05-20 16:04:00,78.4,58.8,29.61,West,268,1.0,9.0,51,0.00,,,0.06,VWS V12.07,2013-05-20 21:04:00,
2013-05-20 16:09:00,78.8,58.0,29.61,West,271,0.0,9.0,49,0.00,,,0.06,VWS V12.07,2013-05-20 21:09:00,
2013-05-20 16:14:00,78.7,57.4,29.61,SSW,194,1.0,9.0,48,0.00,,,0.06,VWS V12.07,2013-05-20 21:14:00,
2013-05-20 16:19:00,78.3,58.2,29.61,SSW,203,0.0,9.0,50,0.00,,,0.06,VWS V12.07,2013-05-20 21:19:00,
2013-05-20 16:24:00,77.8,58.8,29.61,North,355,1.0,9.0,52,0.00,,,0.06,VWS V12.07,2013-05-20 21:24:00,
2013-05-20 16:29:00,77.6,58.6,29.61,NE,44,2.0,9.0,52,0.00,,,0.06,VWS V12.07,2013-05-20 21:29:00,
2013-05-20 16:34:00,77.8,58.8,29.60,NNW,336,2.0,3.0,52,0.00,,,0.06,VWS V12.07,2013-05-20 21:34:00,
2013-05-20 16:39:00,78.1,58.5,29.60,West,266,1.0,5.0,51,0.00,,,0.06,VWS V12.07,2013-05-20 21:39:00,
2013-05-20 16:49:00,77.5,58.0,29.60,ESE,121,0.0,7.0,51,0.00,,,0.06,VWS V12.07,2013-05-20 21:49:00,
2013-05-20 16:59:00,76.6,57.7,29.60,ESE,115,1.0,7.0,52,0.00,,,0.06,VWS V12.07,2013-05-20 21:59:00,
2013-05-20 17:09:00,76.9,58.0,29.60,NW,304,0.0,4.0,52,0.00,,,0.06,VWS V12.07,2013-05-20 22:09:00,
2013-05-20 17:14:00,77.5,58.0,29.60,North,355,1.0,6.0,51,0.00,,,0.06,VWS V12.07,2013-05-20 22:14:00,
2013-05-20 17:19:00,77.9,57.8,29.60,NNE,13,1.0,6.0,50,0.00,,,0.06,VWS V12.07,2013-05-20 22:19:00,
2013-05-20 17:29:00,77.1,57.6,29.61,NE,36,4.0,6.0,51,0.00,,,0.06,VWS V12.07,2013-05-20 22:29:00,
2013-05-20 17:39:00,76.5,58.6,29.60,North,350,0.0,3.0,54,0.00,,,0.06,VWS V12.07,2013-05-20 22:39:00,
2013-05-20 17:44:00,76.5,58.1,29.60,ENE,68,0.0,5.0,53,0.00,,,0.06,VWS V12.07,2013-05-20 22:44:00,
2013-05-20 17:49:00,76.5,58.1,29.60,SW,226,1.0,5.0,53,0.00,,,0.06,VWS V12.07,2013-05-20 22:49:00,
2013-05-20 17:59:00,76.1,60.3,29.61,SW,221,0.0,8.0,58,0.00,,,0.06,VWS V12.07,2013-05-20 22:59:00,
2013-05-20 18:09:00,74.5,60.6,29.61,SE,138,0.0,4.0,62,0.00,,,0.06,VWS V12.07,2013-05-20 23:09:00,
2013-05-20 18:14:00,74.1,59.8,29.61,East,84,1.0,4.0,61,0.00,,,0.06,VWS V12.07,2013-05-20 23:14:00,
2013-05-20 18:19:00,73.9,61.0,29.61,NNE,32,2.0,7.0,64,0.00,,,0.06,VWS V12.07,2013-05-20 23:19:00,
2013-05-20 18:24:00,73.6,60.2,29.61,NE,42,2.0,7.0,63,0.00,,,0.06,VWS V12.07,2013-05-20 23:24:00,
2013-05-20 18:29:00,73.5,61.0,29.61,NE,42,1.0,7.0,65,0.00,,,0.06,VWS V12.07,2013-05-20 23:29:00,
2013-05-20 18:34:00,73.5,60.6,29.61,NE,43,1.0,4.0,64,0.00,,,0.06,VWS V12.07,2013-05-20 23:34:00,
2013-05-20 18:44:00,73.3,60.0,29.61,NE,42,0.0,4.0,63,0.00,,,0.06,VWS V12.07,2013-05-20 23:44:00,
2013-05-20 18:49:00,73.3,59.5,29.61,NE,38,0.0,4.0,62,0.00,,,0.06,VWS V12.07,2013-05-20 23:49:00,
2013-05-20 18:54:00,73.3,60.0,29.61,NE,38,0.0,4.0,63,0.00,,,0.06,VWS V12.07,2013-05-20 23:54:00,
2013-05-20 19:04:00,72.9,60.5,29.62,NNE,25,0.0,0.0,65,0.00,,,0.06,VWS V12.07,2013-05-21 00:04:00,
2013-05-20 19:09:00,72.7,58.9,29.62,ESE,102,1.0,4.0,62,0.00,,,0.06,VWS V12.07,2013-05-21 00:09:00,
2013-05-20 19:14:00,72.6,59.3,29.62,SSW,210,0.0,4.0,63,0.00,,,0.06,VWS V12.07,2013-05-21 00:14:00,
2013-05-20 19:24:00,72.4,60.0,29.62,SSW,204,0.0,4.0,65,0.00,,,0.06,VWS V12.07,2013-05-21 00:24:00,
2013-05-20 19:29:00,72.4,59.5,29.63,West,261,0.0,4.0,64,0.00,,,0.06,VWS V12.07,2013-05-21 00:29:00,
2013-05-20 19:34:00,72.6,60.2,29.63,West,261,0.0,1.0,65,0.00,,,0.06,VWS V12.07,2013-05-21 00:34:00,
2013-05-20 19:39:00,72.7,59.8,29.63,West,261,0.0,1.0,64,0.00,,,0.06,VWS V12.07,2013-05-21 00:39:00,
2013-05-20 19:44:00,72.8,59.9,29.63,West,261,0.0,1.0,64,0.00,,,0.06,VWS V12.07,2013-05-21 00:44:00,
2013-05-20 19:49:00,72.9,60.5,29.63,West,271,1.0,3.0,65,0.00,,,0.06,VWS V12.07,2013-05-21 00:49:00,
2013-05-20 19:54:00,73.0,59.7,29.63,West,271,0.0,3.0,63,0.00,,,0.06,VWS V12.07,2013-05-21 00:54:00,
2013-05-20 19:59:00,72.9,58.2,29.63,West,271,0.0,3.0,60,0.00,,,0.06,VWS V12.07,2013-05-21 00:59:00,
2013-05-20 20:04:00,72.6,57.9,29.63,West,269,0.0,4.0,60,0.00,,,0.06,VWS V12.07,2013-05-21 01:04:00,
2013-05-20 20:14:00,71.3,58.1,29.63,West,269,0.0,4.0,63,0.00,,,0.06,VWS V12.07,2013-05-21 01:14:00,
2013-05-20 20:19:00,70.6,57.8,29.63,West,269,0.0,4.0,64,0.00,,,0.06,VWS V12.07,2013-05-21 01:19:00,
2013-05-20 20:24:00,70.0,57.7,29.64,West,270,0.0,4.0,65,0.00,,,0.06,VWS V12.07,2013-05-21 01:24:00,
2013-05-20 20:34:00,68.9,57.5,29.64,West,269,0.0,0.0,67,0.00,,,0.06,VWS V12.07,2013-05-21 01:34:00,
2013-05-20 20:44:00,67.9,57.4,29.65,West,270,0.0,0.0,69,0.00,,,0.06,VWS V12.07,2013-05-21 01:44:00,
2013-05-20 20:49:00,67.4,56.9,29.65,West,269,0.0,0.0,69,0.00,,,0.06,VWS V12.07,2013-05-21 01:49:00,
2013-05-20 20:54:00,67.0,56.5,29.65,West,269,0.0,0.0,69,0.00,,,0.06,VWS V12.07,2013-05-21 01:54:00,
2013-05-20 20:59:00,66.7,56.6,29.65,West,270,0.0,0.0,70,0.00,,,0.06,VWS V12.07,2013-05-21 01:59:00,
2013-05-20 21:04:00,66.3,56.6,29.65,West,270,0.0,0.0,71,0.00,,,0.06,VWS V12.07,2013-05-21 02:04:00,
2013-05-20 21:09:00,65.9,56.2,29.65,West,269,0.0,0.0,71,0.00,,,0.06,VWS V12.07,2013-05-21 02:09:00,
2013-05-20 21:14:00,65.5,56.2,29.66,West,269,0.0,0.0,72,0.00,,,0.06,VWS V12.07,2013-05-21 02:14:00,
2013-05-20 21:19:00,65.2,56.3,29.66,West,270,0.0,0.0,73,0.00,,,0.06,VWS V12.07,2013-05-21 02:19:00,
2013-05-20 21:24:00,64.8,56.0,29.66,West,270,0.0,0.0,73,0.00,,,0.06,VWS V12.07,2013-05-21 02:24:00,
2013-05-20 21:29:00,64.5,56.0,29.66,West,269,0.0,0.0,74,0.00,,,0.06,VWS V12.07,2013-05-21 02:29:00,
2013-05-20 21:34:00,64.2,55.8,29.66,West,270,0.0,0.0,74,0.00,,,0.06,VWS V12.07,2013-05-21 02:34:00,
2013-05-20 21:44:00,63.7,56.0,29.66,West,270,0.0,0.0,76,0.00,,,0.06,VWS V12.07,2013-05-21 02:44:00,
2013-05-20 21:49:00,63.3,55.6,29.66,West,269,0.0,0.0,76,0.00,,,0.06,VWS V12.07,2013-05-21 02:49:00,
2013-05-20 21:54:00,63.1,55.8,29.66,West,270,0.0,0.0,77,0.00,,,0.06,VWS V12.07,2013-05-21 02:54:00,
2013-05-20 22:04:00,62.6,55.7,29.66,West,269,0.0,0.0,78,0.00,,,0.06,VWS V12.07,2013-05-21 03:04:00,
2013-05-20 22:09:00,62.4,55.8,29.66,West,269,0.0,0.0,79,0.00,,,0.06,VWS V12.07,2013-05-21 03:09:00,
2013-05-20 22:14:00,62.3,56.1,29.66,West,270,0.0,0.0,80,0.00,,,0.06,VWS V12.07,2013-05-21 03:14:00,
2013-05-20 22:24:00,61.7,55.5,29.67,West,270,0.0,0.0,80,0.00,,,0.06,VWS V12.07,2013-05-21 03:24:00,
2013-05-20 22:29:00,61.6,55.4,29.67,West,270,0.0,1.0,80,0.00,,,0.06,VWS V12.07,2013-05-21 03:29:00,
2013-05-20 22:34:00,61.3,55.1,29.67,West,270,0.0,0.0,80,0.00,,,0.06,VWS V12.07,2013-05-21 03:34:00,
2013-05-20 22:39:00,61.1,54.9,29.67,West,269,0.0,0.0,80,0.00,,,0.06,VWS V12.07,2013-05-21 03:39:00,
2013-05-20 22:49:00,60.7,55.2,29.67,West,270,0.0,0.0,82,0.00,,,0.06,VWS V12.07,2013-05-21 03:49:00,
2013-05-20 22:54:00,60.5,55.3,29.66,West,270,0.0,0.0,83,0.00,,,0.06,VWS V12.07,2013-05-21 03:54:00,
2013-05-20 22:59:00,60.3,55.1,29.66,West,270,0.0,0.0,83,0.00,,,0.06,VWS V12.07,2013-05-21 03:59:00,
2013-05-20 23:04:00,60.1,55.3,29.66,West,270,0.0,0.0,84,0.00,,,0.06,VWS V12.07,2013-05-21 04:04:00,
2013-05-20 23:09:00,59.9,55.4,29.66,West,270,0.0,0.0,85,0.00,,,0.06,VWS V12.07,2013-05-21 04:09:00,
2013-05-20 23:14:00,59.8,55.6,29.66,West,270,0.0,0.0,86,0.00,,,0.06,VWS V12.07,2013-05-21 04:14:00,
2013-05-20 23:19:00,59.6,55.7,29.66,West,269,0.0,0.0,87,0.00,,,0.06,VWS V12.07,2013-05-21 04:19:00,
2013-05-20 23:24:00,59.5,55.6,29.65,West,270,0.0,0.0,87,0.00,,,0.06,VWS V12.07,2013-05-21 04:24:00,
2013-05-20 23:34:00,59.1,55.2,29.66,West,270,0.0,0.0,87,0.00,,,0.06,VWS V12.07,2013-05-21 04:34:00,
2013-05-20 23:39:00,59.0,55.1,29.66,West,269,0.0,0.0,87,0.00,,,0.06,VWS V12.07,2013-05-21 04:39:00,
2013-05-20 23:44:00,59.0,55.1,29.65,West,269,0.0,0.0,87,0.00,,,0.06,VWS V12.07,2013-05-21 04:44:00,
2013-05-20 23:49:00,59.0,55.5,29.65,West,270,0.0,0.0,88,0.00,,,0.06,VWS V12.07,2013-05-21 04:49:00,
2013-05-20 23:54:00,58.9,55.4,29.65,West,270,0.0,0.0,88,0.00,,,0.06,VWS V12.07,2013-05-21 04:54:00,
2013-05-20 23:59:00,58.8,55.6,29.65,West,270,0.0,0.0,89,0.00,,,0.06,VWS V12.07,2013-05-21 04:59:00,